[[{"header":{"parameterUnit":"m.s-1","parameterCategory":1,"la1":30.2991,"la2":30.254,"lo1":-89.0895,"lo2":-89.0444,"dy":0.0017,"dx":0.0017,"nx":28,"ny":28,"refTime":"2023-06-19T21:00:00:Z","depth":0,"parameterNumber":2,"parameterNumberName":"U-component_of_WINDS"},"data":[0,0,0,0,0,0,0,0,0,0,0,0,0,0,0,0,0,0,0,0,0,0,0,0,0,0,0,0,0,0,0,0,0,0,0,0,0,0,0,0,0,0,0,0,0,0,0,0,0,0,0,0,0,0,0,0,0,0,-0.8428,-0.8428,0,-0.8398,-0.8397,-0.8397,-0.8471,-0.8474,-0.8476,-0.8478,-0.8428,-0.8424,-0.8421,0,0,0,0,0,0,0,0,0,0,0,0,0,-0.8535,-0.8532,-0.8428,-0.8428,-0.8427,-0.8398,-0.8397,-0.8397,-0.8471,-0.8474,-0.8477,-0.8479,-0.8429,-0.8424,-0.842,0,0,0,0,0,0,0,0,0,0,0,0,0,-0.8494,-0.8532,-0.8428,-0.8461,-0.8464,-0.8398,-0.8397,-0.8397,-0.847,-0.8474,-0.8477,-0.8481,-0.843,-0.8425,-0.842,-0.8314,0,0,-0.8403,-0.8401,0,0,0,0,0,0,0,0,-0.8496,-0.849,-0.8457,-0.8459,-0.8462,-0.8442,-0.8416,-0.8368,-0.8469,-0.8467,-0.8478,-0.8483,-0.8428,-0.8423,-0.8409,-0.8311,-0.8309,-0.8403,-0.8399,-0.8397,-0.8395,0,0,0,0,0,0,0,-0.8499,-0.8492,-0.8415,-0.8456,-0.8459,-0.8472,-0.8471,-0.8407,-0.8427,-0.8468,-0.8473,-0.8469,-0.843,-0.8414,-0.8408,-0.8309,-0.8403,-0.8398,-0.8395,-0.8393,-0.812,-0.8116,0,0,0,0,0,0,-0.85,-0.8494,-0.8416,-0.8414,-0.8489,-0.8468,-0.8466,-0.8444,-0.8428,-0.843,-0.8466,-0.8473,-0.8421,-0.8414,-0.8407,-0.8278,-0.8397,-0.8392,-0.8389,-0.8124,-0.8119,-0.8115,0,0,0,0,0,0,-0.8502,-0.8493,-0.8418,-0.8456,-0.8447,-0.8462,-0.8438,-0.8442,-0.8426,-0.8428,-0.843,-0.8447,-0.8424,-0.8414,-0.8337,-0.8278,-0.839,-0.8385,-0.8129,-0.8122,-0.8117,-0.8023,0,0,0,0,0,0,-0.8505,-0.8493,-0.8456,-0.8455,-0.8445,-0.8353,-0.8434,-0.8439,-0.8419,-0.8427,-0.841,-0.841,-0.8426,-0.8345,-0.8332,-0.8272,-0.838,-0.8134,-0.8126,-0.8119,-0.8031,-0.8014,-0.8,0,0,0,0,0,-0.8508,-0.8427,-0.8454,-0.8444,-0.84,-0.835,-0.8343,-0.8369,-0.8414,-0.8374,-0.8376,-0.8411,-0.8289,-0.8336,-0.8322,-0.826,-0.8137,-0.8128,-0.8119,-0.8038,-0.8018,-0.8001,0,0,0,0,0,0,-0.8413,-0.8427,-0.8457,-0.8374,-0.8361,-0.8362,-0.8313,-0.8347,-0.8315,-0.8323,-0.8351,-0.8346,-0.8262,-0.8255,-0.8308,-0.8156,-0.822,-0.8207,-0.8163,-0.8143,-0.8128,-0.8127,-0.8376,0,0,0,0,0,-0.8385,-0.8348,-0.836,-0.8285,-0.8278,-0.8297,-0.8275,-0.8297,-0.8282,-0.8274,-0.827,-0.8248,-0.8205,-0.8175,-0.8136,-0.8034,-0.8027,-0.7984,-0.7969,-0.7956,-0.7942,-0.7883,-0.7862,-0.8085,-0.8085,-0.8085,0,0,-0.832,-0.8324,-0.8297,-0.8266,-0.8258,-0.8213,-0.8291,-0.824,-0.8206,-0.8265,-0.8192,-0.8189,-0.8166,-0.8076,-0.8035,-0.8066,-0.7881,-0.7945,-0.7934,-0.7927,-0.7872,-0.785,-0.7832,-0.8079,-0.808,-0.8081,0,0,-0.818,-0.8183,-0.8119,-0.8112,-0.8102,-0.8116,-0.8101,-0.8099,-0.81,-0.8031,-0.8073,-0.8031,-0.7957,-0.7938,-0.7919,-0.7778,-0.7806,-0.7764,-0.7679,-0.7621,-0.7604,-0.7588,-0.7531,-0.7511,-0.7752,-0.7752,-0.7752,0,-0.8099,-0.804,-0.808,-0.8028,-0.801,-0.8072,-0.8004,-0.7993,-0.7968,-0.7952,-0.7991,-0.79,-0.7889,-0.7793,-0.7759,-0.7744,-0.7722,-0.7761,-0.7605,-0.7589,-0.7575,-0.752,-0.75,-0.7746,-0.7747,-0.7748,-0.7748,0,-0.7939,-0.7897,-0.7846,-0.7827,-0.7805,-0.7745,-0.7772,-0.7744,-0.777,-0.7778,-0.7703,-0.7695,-0.7653,-0.7634,-0.7656,-0.754,-0.756,-0.7602,-0.7664,-0.7547,-0.7496,-0.7476,-0.7738,-0.774,-0.7742,-0.7743,0,0,-0.7728,-0.7739,-0.7718,-0.771,-0.7707,-0.7671,-0.7614,-0.7581,-0.7553,-0.7536,-0.7483,-0.7422,-0.7462,-0.744,-0.7461,-0.7412,-0.7293,-0.7459,-0.7458,-0.7422,-0.7159,-0.7121,-0.7097,-0.7317,-0.7314,-0.7311,-0.7158,0,-0.7585,-0.7491,-0.7528,-0.7428,-0.7387,-0.7447,-0.7396,-0.7385,-0.7393,-0.7355,-0.7362,-0.7316,-0.7375,-0.7362,-0.7317,-0.7317,-0.7239,-0.733,-0.7259,-0.7256,-0.7254,-0.7072,-0.7031,-0.6887,-0.7139,-0.7136,-0.7134,0,-0.7403,-0.7385,-0.7282,-0.7287,-0.7271,-0.7225,-0.7197,-0.7163,-0.7151,-0.716,-0.7139,-0.7171,-0.7109,-0.718,-0.7091,-0.7152,-0.7127,-0.7123,-0.7118,-0.7104,-0.7181,-0.7045,-0.6843,-0.6818,-0.7104,-0.7106,-0.7109,0,-0.7251,-0.7201,-0.7133,-0.7125,-0.713,-0.7096,-0.7095,-0.7089,-0.7066,-0.7041,-0.7025,-0.6992,-0.697,-0.6941,-0.6961,-0.7012,-0.6866,-0.694,-0.6864,-0.6863,-0.6822,-0.6822,-0.6604,-0.682,-0.6821,-0.6821,-0.6822,0,-0.7082,-0.7014,-0.7065,-0.7022,-0.6948,-0.6991,-0.6915,-0.692,-0.6915,-0.6869,-0.692,-0.6875,-0.691,-0.6866,-0.6882,-0.6802,-0.6794,-0.6793,-0.6796,-0.6783,-0.6782,-0.6759,-0.6766,-0.6816,-0.6817,-0.6818,-0.6819,0,-0.6895,-0.6928,-0.6856,-0.687,-0.6872,-0.6816,-0.6825,-0.6782,-0.6798,-0.674,-0.6729,-0.6749,-0.6701,-0.6722,-0.667,-0.668,-0.6576,-0.6596,-0.658,-0.6582,-0.6502,-0.6506,-0.6254,-0.622,-0.6467,-0.6465,-0.6463,0,-0.678,-0.673,-0.6742,-0.6718,-0.6716,-0.6678,-0.6658,-0.6699,-0.6674,-0.666,-0.6617,-0.6576,-0.6544,-0.6464,-0.6469,-0.6429,-0.6443,-0.6359,-0.6436,-0.6424,-0.6432,-0.6431,-0.6423,-0.6339,-0.6336,-0.6334,-0.6332,0,-0.6569,-0.659,-0.6561,-0.6539,-0.6515,-0.6497,-0.6484,-0.646,-0.6502,-0.6471,-0.6427,-0.6402,-0.6353,-0.6308,-0.6274,-0.6267,-0.6301,-0.631,-0.6288,-0.6269,-0.6258,-0.6255,-0.6528,-0.6312,-0.6314,-0.6315,-0.6316,-0.6317,-0.6409,-0.6368,-0.6369,-0.6336,-0.6332,-0.6319,-0.628,-0.6294,-0.626,-0.6226,-0.6253,-0.6198,-0.6188,-0.6146,-0.6135,-0.6089,-0.6121,-0.6092,-0.6082,-0.6072,-0.6058,-0.6276,-0.6083,-0.6084,-0.6085,-0.6085,-0.6086,0,-0.6195,-0.6201,-0.6171,-0.6153,-0.6126,-0.6175,-0.6163,-0.6134,-0.6088,-0.6079,-0.6049,-0.5996,-0.5954,-0.5961,-0.5921,-0.5882,-0.5897,-0.5869,-0.5867,-0.5863,-0.6036,-0.6054,-0.5857,-0.5857,-0.5857,-0.5858,-0.5858,-0.5858,-0.6079,-0.601,-0.6031,-0.5959,-0.5965,-0.5917,-0.5905,-0.5891,-0.5884,-0.5825,-0.5793,-0.5802,-0.5796,-0.5758,-0.5719,-0.5722,-0.57,-0.5664,-0.5671,-0.583,-0.5852,-0.5873,-0.589,-0.5662,-0.5662,-0.5502,-0.5501,-0.5499]},{"header":{"parameterUnit":"m.s-1","parameterCategory":1,"la1":30.2991,"la2":30.254,"lo1":-89.0895,"lo2":-89.0444,"dy":0.0017,"dx":0.0017,"nx":28,"ny":28,"refTime":"2023-06-19T21:00:00:Z","depth":0,"parameterNumber":3,"parameterNumberName":"V-component_of_WINDS"},"data":[0,0,0,0,0,0,0,0,0,0,0,0,0,0,0,0,0,0,0,0,0,0,0,0,0,0,0,0,0,0,0,0,0,0,0,0,0,0,0,0,0,0,0,0,0,0,0,0,0,0,0,0,0,0,0,0,0,0,1.2591,1.2591,0,1.2588,1.2588,1.2588,1.2503,1.25,1.2498,1.2496,1.2494,1.2496,1.2498,0,0,0,0,0,0,0,0,0,0,0,0,0,1.2521,1.2523,1.2591,1.2591,1.2591,1.2588,1.2588,1.2588,1.2503,1.25,1.2498,1.2495,1.2494,1.2496,1.2498,0,0,0,0,0,0,0,0,0,0,0,0,0,1.2538,1.2524,1.2591,1.2548,1.2544,1.2588,1.2588,1.2588,1.2503,1.25,1.2497,1.2494,1.2493,1.2496,1.2499,1.2583,0,0,1.2508,1.2509,0,0,0,0,0,0,0,0,1.2537,1.2541,1.2554,1.2551,1.2547,1.2542,1.2562,1.2586,1.2504,1.2519,1.2496,1.2492,1.2513,1.2514,1.2521,1.2583,1.2583,1.2508,1.251,1.2511,1.2512,0,0,0,0,0,0,0,1.2536,1.2541,1.2589,1.2554,1.255,1.2528,1.2527,1.2567,1.2535,1.2517,1.2511,1.2512,1.251,1.2518,1.252,1.2583,1.2508,1.2511,1.2512,1.2514,1.2713,1.2716,0,0,0,0,0,0,1.2541,1.254,1.259,1.2589,1.2534,1.2532,1.2531,1.2547,1.2534,1.2529,1.2515,1.2508,1.2515,1.2517,1.252,1.2618,1.2511,1.2514,1.2516,1.271,1.2714,1.2718,0,0,0,0,0,0,1.254,1.2546,1.259,1.2563,1.2567,1.2537,1.2556,1.2549,1.2556,1.2532,1.2526,1.2529,1.2512,1.2515,1.2568,1.2617,1.2515,1.2518,1.2705,1.2711,1.2716,1.2816,0,0,0,0,0,0,1.2538,1.2546,1.2579,1.2564,1.2569,1.2639,1.2559,1.2551,1.2562,1.2553,1.2544,1.2539,1.251,1.2564,1.2571,1.2619,1.252,1.2701,1.2708,1.2714,1.2809,1.2824,1.2838,0,0,0,0,0,1.2536,1.2608,1.2581,1.2588,1.2609,1.2642,1.2644,1.2609,1.2566,1.2598,1.2582,1.2539,1.2609,1.257,1.2577,1.2627,1.2698,1.2706,1.2714,1.2802,1.2821,1.2838,0,0,0,0,0,0,1.2631,1.2606,1.2576,1.2645,1.2646,1.2627,1.2668,1.2631,1.2645,1.2636,1.2591,1.259,1.2649,1.2642,1.2599,1.2707,1.2646,1.2656,1.2711,1.2729,1.2743,1.2745,1.2523,0,0,0,0,0,1.2659,1.2688,1.2664,1.2728,1.273,1.2698,1.2711,1.2684,1.2683,1.2684,1.2671,1.2673,1.2694,1.2711,1.273,1.2805,1.2802,1.2843,1.2858,1.287,1.288,1.292,1.2938,1.2743,1.2743,1.2743,0,0,1.272,1.2709,1.2731,1.2746,1.2744,1.2775,1.27,1.2736,1.2758,1.2689,1.2739,1.2729,1.2727,1.2791,1.2819,1.2788,1.2932,1.288,1.289,1.2893,1.293,1.2948,1.2964,1.2749,1.2748,1.2747,0,0,1.2846,1.284,1.2892,1.2891,1.2887,1.2865,1.2878,1.2864,1.2855,1.2903,1.2851,1.2876,1.2916,1.2916,1.2922,1.3044,1.3005,1.3051,1.3129,1.3168,1.3184,1.3197,1.3243,1.3259,1.306,1.306,1.306,0,1.2922,1.2966,1.2924,1.2963,1.2972,1.2908,1.296,1.296,1.2964,1.2971,1.2935,1.2982,1.2976,1.304,1.3069,1.3075,1.3088,1.3054,1.3185,1.3198,1.321,1.3253,1.3269,1.3066,1.3065,1.3065,1.3064,0,1.306,1.3091,1.3133,1.3137,1.315,1.3195,1.316,1.3177,1.3146,1.3128,1.3177,1.3167,1.3183,1.3195,1.3166,1.3254,1.3235,1.3192,1.3131,1.3235,1.3274,1.329,1.3074,1.3072,1.307,1.3069,0,0,1.325,1.3227,1.3244,1.3245,1.3234,1.3258,1.3299,1.3313,1.333,1.3333,1.3367,1.34,1.336,1.3366,1.3336,1.337,1.3468,1.3323,1.3322,1.3353,1.3566,1.3602,1.3621,1.344,1.3443,1.3446,1.3567,0,1.3374,1.3444,1.3406,1.3482,1.351,1.3448,1.3484,1.3481,1.3464,1.3485,1.3465,1.349,1.3434,1.3438,1.3468,1.345,1.3511,1.344,1.3474,1.3476,1.3481,1.3641,1.3679,1.3795,1.3582,1.3585,1.3587,0,1.3528,1.3537,1.3616,1.3599,1.3609,1.3643,1.3652,1.3673,1.3668,1.3652,1.3658,1.3619,1.3658,1.3593,1.3646,1.3599,1.3609,1.3602,1.3606,1.3611,1.3541,1.3654,1.3831,1.385,1.361,1.3608,1.3607,0,1.3662,1.3693,1.3744,1.3746,1.3727,1.3752,1.3745,1.3736,1.3747,1.3754,1.3761,1.3773,1.3781,1.379,1.3756,1.3711,1.3814,1.3746,1.3804,1.3806,1.3833,1.3833,1.4017,1.3833,1.3833,1.3833,1.3832,0,1.3806,1.3857,1.3804,1.3836,1.3891,1.3844,1.39,1.3886,1.3879,1.3907,1.3852,1.388,1.383,1.3852,1.3824,1.3874,1.3877,1.3866,1.3859,1.3874,1.3876,1.3884,1.3876,1.3837,1.3836,1.3835,1.3835,0,1.3967,1.3933,1.3985,1.3961,1.3956,1.3998,1.3978,1.4006,1.3983,1.4019,1.4025,1.399,1.4013,1.3978,1.3997,1.3978,1.4047,1.4026,1.405,1.4045,1.4107,1.4103,1.4306,1.4332,1.4128,1.413,1.4131,0,1.4063,1.4101,1.408,1.4095,1.4091,1.4115,1.4125,1.408,1.4092,1.4088,1.4117,1.4135,1.4148,1.4188,1.4164,1.4178,1.4159,1.4229,1.4161,1.4175,1.4164,1.4164,1.4168,1.4245,1.4247,1.4249,1.4251,0,1.4238,1.4218,1.4235,1.4245,1.4259,1.4265,1.4267,1.4282,1.4233,1.425,1.4273,1.4283,1.4301,1.4321,1.4329,1.4321,1.4279,1.4271,1.4286,1.4304,1.4318,1.4314,1.4092,1.4268,1.4266,1.4265,1.4264,1.4264,1.4371,1.4401,1.4392,1.4412,1.4408,1.4411,1.4437,1.4416,1.4434,1.4446,1.4417,1.4447,1.4439,1.4445,1.4441,1.4464,1.4434,1.4454,1.446,1.4468,1.4479,1.431,1.4465,1.4464,1.4464,1.4463,1.4463,0,1.4545,1.4535,1.4553,1.4558,1.4574,1.4529,1.4529,1.4545,1.4572,1.4568,1.4581,1.4607,1.4624,1.4601,1.4614,1.4637,1.4619,1.4643,1.4643,1.4643,1.4504,1.4491,1.4658,1.4658,1.4658,1.4658,1.4658,1.4658,1.4638,1.4688,1.4667,1.4714,1.4703,1.4732,1.4736,1.4738,1.4735,1.4766,1.478,1.4764,1.4752,1.4764,1.4779,1.4771,1.478,1.4813,1.4799,1.4671,1.4652,1.4634,1.4622,1.4814,1.4814,1.4936,1.4937,1.4938]}]]